www.pogodaiklimat.ru
ПОГОДА в Мозыре

Архив погоды в Мозыре (Гомельская область, Беларусь)

Время
(UTC), дата
03 16.06
06 16.06
09 16.06
12 16.06
15 16.06
18 16.06
21 16.06
00 17.06
03 17.06
06 17.06
09 17.06
12 17.06
15 17.06
18 17.06
21 17.06
00 18.06
03 18.06
06 18.06
09 18.06
12 18.06
15 18.06
18 18.06
21 18.06
00 19.06
03 19.06
06 19.06
09 19.06
12 19.06
15 19.06
18 19.06
21 19.06
00 20.06
03 20.06
06 20.06
09 20.06
12 20.06
15 20.06
18 20.06
21 20.06
00 21.06
03 21.06
06 21.06
09 21.06
12 21.06
15 21.06
18 21.06
21 21.06
00 22.06
03 22.06
06 22.06
09 22.06
12 22.06
15 22.06
18 22.06
21 22.06
00 23.06
Ветер
(напр.,м/с)
Видим. Явления Облачность Т
(С)
Тd
(С)
f
(%)
Тe
(С)
Тes
(С)
Комфортность P
(гПа)
Po
(гПа)
Тmin
(С)
Tmax
(С)
R
(мм)
R24
(мм)
S
(см)
СВ 3 1100 м дымка 9/9 60 м
[Frnb]
+15.1 +15.0 99 +14 +14 по сезону 1013.2 990.9
штиль 0 5000 м дымка {туман} 8/8 180 м
[Frnb Ci fib]
+16.6 +16.3 98 +16 +19 по сезону 1013.1 990.9 +14.9
СВ 2 17 км 8/5 1000 м
[Cu Sc Ac trans]
+22.9 +17.1 70 +28 +33 душно 1011.7 990.1
В 2 20 км 8/6 1000 м
[Sc Ac trans]
+23.8 +15.3 59 +27 +31 жарко 1010.9 989.4
СВ 1 18 км 9/0
[Ac As]
+22.3 +16.6 70 +27 +29 душно 1010.5 988.8
СВ 1 20 км 8/0
[Ac cuf]
+20.8 +15.6 72 +25 +25 комфорт 1010.3 988.5 +24.3
штиль 0 10 км 6/0
[Ac und]
+18.5 +16.3 87 +19 +19 тепло 1010.3 988.3
штиль 0 7000 м дымка 9/0
[Ac As]
+17.1 +16.3 95 +17 +17 тепло 1009.8 987.7
штиль 0 7000 м дымка 9/0
[Ac As]
+16.9 +16.3 96 +17 +17 тепло 1009.5 987.4
З 1 8000 м дымка 9/0
[Ac As]
+18.0 +17.0 94 +19 +22 тепло 1009.6 987.6 +16.4
З 2 20 км 8/4 1000 м
[Cu med, cong Ci sp]
+22.5 +17.4 73 +27 +36 душно 1009.5 987.9
С 2 20 км в посл. час ливневой дождь 6/6 1000 м
[Cb cap]
+21.2 +19.8 92 +26 +32 душно 1009.7 988.0
З 2 20 км в посл. час ливневой дождь 8/4 1000 м
[Cu med, cong Ac und]
+21.9 +17.7 77 +26 +28 душно 1010.0 988.3
штиль 0 15 км {ливн. дождь} 5/0
[Ac trans Cs]
+20.6 +17.8 84 +24 +24 комфорт 1011.3 989.5 +26.4 0.9
штиль 0 9000 м дымка 3/0
[Ac trans]
+18.3 +16.8 91 +19 +19 тепло 1012.5 990.5
штиль 0 5000 м дымка 3/0
[Ci fib]
+16.7 +15.9 95 +17 +17 тепло 1013.9 991.7
штиль 0 4000 м дымка ясно +15.8 +15.3 97 +16 +16 тепло 1015.0 992.7
З 1 20 км ясно +21.3 +17.5 79 +25 +34 комфорт 1015.8 993.9 +15.2
З 2 20 км ясно +25.1 +13.9 50 +27 +44 жарко 1016.2 994.7
З 2 20 км 4/4 1000 м
[Cu med, cong]
+27.1 +13.8 44 +29 +38 жарко 1016.3 994.9
З 1 20 км 8/3 1000 м
[Cu hum Ac trans Cs]
+26.3 +16.5 55 +30 +32 душно 1015.9 994.5
штиль 0 15 км 8/0
[Ac trans Ci]
+23.1 +16.4 66 +28 +28 душно 1016.5 994.8 +28.0
штиль 0 10 км 3/0
[Ci fib]
+18.8 +16.0 84 +20 +20 тепло 1017.4 995.3
штиль 0 8000 м дымка 4/0
[Ci fib]
+16.6 +16.0 96 +16 +16 тепло 1017.6 995.3
штиль 0 8000 м дымка 8/0
[Cs]
+16.7 +15.7 94 +17 +17 тепло 1017.8 995.5
ЮВ 1 20 км 1/0
[Ac trans]
+24.2 +16.7 63 +28 +36 душно 1016.9 995.3 +16.2
ЮЗ 2 20 км 8/0
[Ac und Cs]
+27.5 +17.1 53 +31 +42 душно 1015.6 994.3
Ю 3 {10} 20 км 8/0
[Ci]
+29.5 +15.2 42 +32 +42 душно 1014.2 993.1
ЮЗ 3 {11} 20 км 4/0
[Cc]
+29.3 +15.4 43 +32 +36 душно 1012.0 990.9
Ю 1 {11} 16 км 8/0
[Ac trans Cs]
+25.9 +17.5 60 +30 +30 душно 1011.4 990.0 +30.0
ЮЗ 2 10 км 4/0
[Ci fib]
+23.8 +17.5 68 +28 +28 душно 1010.4 988.9
З 1 10 км 6/0
[Ac trans]
+22.1 +18.7 81 +27 +27 душно 1008.5 986.9
З 4-12 {10} 5000 м слаб. ливневой дождь 10/8 360 м
[Cb cap Ac As]
+17.7 +17.2 97 +17 +17 тепло 1008.1 986.1
СЗ 3 {12} 4000 м в посл. час ливневой дождь 10/8 270 м
[Frnb Ac und]
+14.4 +14.0 97 +13 +14 прохладно 1012.6 990.2 +14.1 4
СЗ 3-10 {13} 18 км 8/8 1020 м
[Cu med, cong]
+17.7 +10.8 64 +18 +20 по сезону 1015.8 993.6
СЗ 3 {13} 20 км 5/3 600 м
[Cu med, cong Ac trans]
+19.3 +10.8 58 +21 +28 комфорт 1017.1 995.0
СЗ 2 {12} 20 км 6/6 1440 м
[Cu Sc]
+19.9 +11.1 57 +22 +24 комфорт 1017.1 995.1
З 2 {12} 20 км ясно +18.4 +12.2 67 +19 +19 по сезону 1018.7 996.5 +21.0
штиль 0 10 км ясно +14.3 +12.3 88 +14 +14 прохладно 1019.0 996.5
штиль 0 8000 м дымка ясно +13.5 +12.1 91 +13 +13 по сезону 1019.8 997.2
штиль 0 7000 м дымка ясно +12.6 +12.1 97 +12 +13 прохладно 1020.0 997.3
штиль 0 20 км ясно +19.1 +14.4 74 +20 +31 тепло 1019.5 997.4 +12.0
З 2 20 км 5/5 1000 м
[Cu med, cong]
+22.1 +12.1 53 +24 +33 комфорт 1018.2 996.4
З 2 20 км 4/4 600 м
[Cu med, cong]
+23.4 +11.8 48 +26 +35 жарко 1017.1 995.4
З 2 20 км 3/3 1000 м
[Cu hum]
+23.6 +12.3 49 +25 +29 комфорт 1015.5 993.8
штиль 0 18 км ясно +20.4 +13.8 66 +22 +22 комфорт 1015.0 993.1 +24.4
штиль 0 10 км 3/0
[Ci fib]
+15.2 +13.2 88 +15 +15 по сезону 1015.3 992.9
штиль 0 8000 м дымка ясно +13.3 +12.8 97 +13 +13 по сезону 1015.9 993.4
штиль 0 8000 м дымка ясно +14.5 +12.9 90 +14 +15 по сезону 1015.0 992.6
штиль 0 20 км 1/0
[Ci fib]
+20.7 +13.6 64 +23 +33 комфорт 1014.6 992.7 +13.0
ЮЗ 1 20 км ясно +24.9 +13.1 48 +27 +46 жарко 1012.6 991.1
З 1 20 км 8/0
[Ac trans Cs]
+25.1 +13.6 49 +27 +38 жарко 1012.1 990.6
штиль 0 20 км 9/0
[Ac As]
+24.5 +14.9 55 +27 +30 жарко 1011.1 989.6
ЮВ 1 12 км в посл. час ливневой дождь 10/3 1000 м
[Sc Ac und]
+22.0 +16.7 72 +26 +26 душно 1009.7 988.0 +25.9 0.0
штиль 0 10 км 4/0
[Ac trans]
+18.7 +15.9 84 +20 +20 тепло 1009.5 987.6
штиль 0 6000 м дымка 3/0
[Ci fib]
+16.9 +16.4 97 +17 +17 тепло 1009.2 987.1
Местоположение метеостанции Мозырь (Гомельская область, Беларусь): широта 52.04 долгота 29.19 высота над уровнем моря 190 м.
В архиве по умолчанию представлена погода в Мозыре за последнюю неделю. Архивные данные за месяц целиком и за предыдущие месяцы, начиная с января 2011 года, Вы можете получить, выбрав интересующий диапазон дат из раскрывающегося списка и нажав кнопку "Найти!".
*Определитесь, кто Вы:
Внимание! Время в таблицах - всемирное. Для получения местного времени необходимо прибавить поправку, которая равна 3 ч.
Некоторые строки с данными для отдельных станций могут быть выделены курсивом. Это означает, что фактические данные отсутствуют по различным причинам, а приведенные значения являются расчетными модельными данными для данного пункта наблюдений.
Смотрите также архив погоды в соседних городах и на ближайших метеорологических станциях:
Партнеры нашего сайта:      
Пояснения к столбцам:
  • Ветер - указаны скорость ветра в м/с - средняя за 10 мин, порывы в срок и между сроками (в фигурных скобках) и направление, откуда дует ветер: С - северный,
  • СВ - северо-восточный, В - восточный, ЮВ - юго-восточный, Ю - южный, ЮЗ - юго-западный, З - западный, СЗ - северо-западный.
  • Видимость - горизонтальная дальность видимости в метрах или километрах. При видимости от 1 до 10 км при отсутствии осадков обычно наблюдается дымка, при ухудшении видимости до 1 км и менее - туман. В сухую погоду видимость может ухудшаться дымом, пылью или мглою.
  • Явления - указаны атмосферные явления, наблюдавшиеся в срок или в последний час перед сроком; фигурными скобками обозначены явления, наблюдавшиеся между сроками (за 1-3 часа до срока); квадратными скобками обозначены град или гололедные отложения с указанием их диаметра в мм.
  • Облачность - указаны через наклонную черту общая и нижняя облачность в баллах и высота нижней границы облаков в метрах; квадратными скобками обозначены формы облаков: Ci - перистые, Cs - перисто-слоистые, Cc - перисто-кучевые, Ac - высококучевые, As - высокослоистые, Sc - слоисто-кучевые, Ns - слоисто-дождевые, Cu - кучевые, Cb - кучево-дождевые. Подробнее классификацию облаков см. в Атласе облаков (PDF).
  • T - Температура воздуха - температура, измеренная на высоте 2 м над землей.
  • Td - Температура точки росы - температура, при понижении до которой содержащийся в воздухе водяной пар достигнет насыщения.
  • f - Относительная влажность воздуха - влажноcть воздуха, измеренная на высоте 2 м над землей.
  • Te - Эффективная температура - температура, которую ощущает одетый по сезону человек в тени. Характеристика душности погоды. При расчете учитывается влияние влажности воздуха и скорости ветра на теплоощущения человека.
  • Tes - Эффективная температура на солнце - температура, которую ощущает человек, с поправкой на солнечный нагрев. Характеристика знойности погоды. Зависит от высоты солнца над горизонтом, облачности и скорости ветра. Ночью, в пасмурную погоду, а также при ветре 12 м/с и более поправка равна нулю.
  • P - Атмосферное давление - приведенное к уровню моря атмосферное давление.
  • Po - Атмосферное давление - измеренное на уровне метеостанции атмосферное давление.
  • Tmin - Минимальная температура - минимум температуры воздуха на высоте 2 м над землей.
  • Tmax - Максимальная температура - максимум температуры воздуха на высоте 2 м над землей.
  • R - Количество осадков - Количество выпавших осадков за период времени, мм. При наведении курсора мыши на число - период времени, за который выпало указанное количество осадков.
  • R24 - Количество осадков - Количество выпавших осадков за 24 часа, мм.
  • S - Снежный покров - Высота снежного покрова, см. При наведении курсора мыши на число - состояние снежного покрова и степень покрытия местности в баллах.